Tracking 28790 objects as of 19-Apr-2024
HD Live streaming from Space Station
objects crossing your sky now

DIAMANT B-P4 DEB

Track DIAMANT B-P4 DEB now!
10-day predictions


NORAD ID: 7655
Int'l Code: 1975-010D
Perigee: 790.5 km
Apogee: 1,052.9 km
Inclination: 49.8 °
Period: 103.3 minutes
Semi major axis: 7292 km
RCS: 0.0384 m2 (small)
Launch date: February 6, 1975
Source: France (FR)
Launch site: FRENCH GUIANA (FRGUI)

Note: This is SATELLITE DEBRIS
Your satellite tracking list
Your tracking list is empty




NASA's NSSDC Master Catalog

Two Line Element Set (TLE):
1 07655U 75010D   24109.38556117  .00000375  00000-0  34487-3 0  9992
2 07655  49.8014 167.9948 0179916  76.1052 285.9787 13.94019999498088
Source of the keplerian elements: AFSPC